DW8790 Maspalomas ES current weather conditions

sailwx.info

Wind from 350 at 1 knots gusting 2

Air temperature 23.3° C
Dewpoint 17.5° C

Last reported at 2015-Sep-03 07:55 UTC.
Time now 2015-Sep-03 09:00 UTC

Location: N 27°46' W 015°34'.
View on Google Maps.

See reports from other nearby stations

  
Tides and Currents Weather Stations Pressure Air Temp Water Temp Dewpoint Dewpoint Depression Visibility Wind Speed Wind Dir Waves Ship Positions
date/time (UTC)wind fromknots sea level pressurealtimeterstation pressurevisibilityair tempwater tempwave heightnotes
2015-Sep-03 07:55 350 1 gusting 2 23.3
2015-Sep-03 07:45 116 0 gusting 2 22.8
2015-Sep-03 07:40 126 22.2
2015-Sep-03 07:25 126 21.7
2015-Sep-03 07:15 126 21.1
2015-Sep-03 07:00 126 1 gusting 2 20.6
2015-Sep-03 06:55 020 21.1
2015-Sep-03 06:50 019 1 gusting 5 20.6
2015-Sep-03 06:35 330 1 gusting 2 20.6
2015-Sep-03 06:25 20.6
2015-Sep-03 06:15 20.6
2015-Sep-03 06:10 273 20.6
2015-Sep-03 06:05 273 20.6
2015-Sep-03 05:55 273 20.6
2015-Sep-03 05:50 273 1 gusting 2 20.6
2015-Sep-03 05:40 273 1 gusting 2 21.1
2015-Sep-03 05:35 005 1 gusting 2 20.6
2015-Sep-03 05:20 341 2 gusting 4 20.6
2015-Sep-03 05:15 305 1 gusting 2 20.6
2015-Sep-03 05:10 005 2 gusting 2 20.6
2015-Sep-03 05:00 005 21.1
2015-Sep-03 04:55 005 0 gusting 2 21.1
2015-Sep-03 04:50 349 2 gusting 4 20.6
2015-Sep-03 04:45 341 3 gusting 5 20.6
2015-Sep-03 04:40 310 1 gusting 2 20.6
2015-Sep-03 04:35 292 2 gusting 2 20.6
2015-Sep-03 04:10 292 20.6
2015-Sep-03 04:05 292 20.6
2015-Sep-03 04:00 292 1 gusting 2 20.6
2015-Sep-03 03:30 292 0 gusting 2 20.6
2015-Sep-03 03:20 292 1 gusting 2 21.1
2015-Sep-03 03:15 292 1 gusting 2 21.1
2015-Sep-03 03:10 292 1 gusting 2 21.1
2015-Sep-03 03:05 292 0 gusting 1 21.1
2015-Sep-03 03:00 292 1 gusting 2 21.1
2015-Sep-03 02:55 292 2 gusting 2 21.7
2015-Sep-03 02:50 292 0 gusting 2 21.7
2015-Sep-03 02:45 292 1 gusting 2 21.7
2015-Sep-03 02:25 292 1 gusting 4 21.7
2015-Sep-03 02:20 221 22.2
2015-Sep-03 02:15 211 0 gusting 1 22.2
2015-Sep-03 02:05 211 0 gusting 6 21.7
2015-Sep-03 01:50 271 21.7
2015-Sep-03 01:45 270 0 gusting 2 21.7
2015-Sep-03 01:40 270 21.7
2015-Sep-03 01:35 270 21.7
2015-Sep-03 01:30 271 21.7
2015-Sep-03 01:25 270 21.7
2015-Sep-03 01:20 270 21.7
2015-Sep-03 01:15 270 0 gusting 2 22.2
2015-Sep-03 01:10 271 0 gusting 2 22.2
2015-Sep-03 01:05 271 0 gusting 2 22.2
2015-Sep-03 01:00 271 1 gusting 2 22.2
2015-Sep-03 00:55 271 1 gusting 2 22.2
2015-Sep-03 00:50 271 1 gusting 2 22.2
2015-Sep-03 00:35 271 0 gusting 2 22.8
2015-Sep-03 00:25 271 1 gusting 4 22.8
2015-Sep-03 00:20 266 2 gusting 5 22.8
2015-Sep-03 00:15 230 2 gusting 5 22.8
2015-Sep-03 00:10 233 2 gusting 5 22.8
2015-Sep-02 23:55 227 22.8
2015-Sep-02 23:50 227 23.3
2015-Sep-02 23:45 227 23.3
2015-Sep-02 23:40 227 23.3
2015-Sep-02 23:35 227 2 gusting 2 23.3
2015-Sep-02 23:30 227 1 gusting 2 23.3
2015-Sep-02 23:25 247 2 gusting 2 22.8
2015-Sep-02 23:20 280 2 gusting 2 22.8
2015-Sep-02 23:15 280 1 gusting 2 22.8
2015-Sep-02 23:05 280 22.8
2015-Sep-02 23:00 280 22.8
2015-Sep-02 22:55 280 22.8
2015-Sep-02 22:50 280 0 gusting 2 23.3
2015-Sep-02 22:45 280 23.3
2015-Sep-02 22:40 280 0 gusting 2 23.3
2015-Sep-02 22:35 280 1 gusting 2 23.3
2015-Sep-02 22:30 280 1 gusting 2 23.3
2015-Sep-02 22:25 256 0 gusting 2 23.3
2015-Sep-02 22:15 232 1 gusting 2 23.3
2015-Sep-02 22:10 232 0 gusting 2 23.3
2015-Sep-02 22:05 232 0 gusting 2 23.3
2015-Sep-02 22:00 232 1 gusting 2 23.9
2015-Sep-02 21:50 232 0 gusting 2 23.9
2015-Sep-02 21:45 281 0 gusting 2 23.9
2015-Sep-02 21:40 260 1 gusting 2 23.9
2015-Sep-02 21:35 223 0 gusting 2 23.9
2015-Sep-02 21:30 228 23.9
2015-Sep-02 21:25 215 0 gusting 2 23.9
2015-Sep-02 21:20 215 1 gusting 2 23.9
2015-Sep-02 21:00 192 0 gusting 2 23.9
2015-Sep-02 20:55 192 0 gusting 2 23.9
2015-Sep-02 20:50 192 1 gusting 2 23.9
2015-Sep-02 20:45 205 23.9
2015-Sep-02 20:40 205 23.9
2015-Sep-02 20:30 205 24.4
2015-Sep-02 20:25 205 1 gusting 2 24.4
2015-Sep-02 20:20 205 24.4
2015-Sep-02 20:15 205 2 gusting 4 24.4
2015-Sep-02 20:05 187 2 gusting 4 24.4
2015-Sep-02 19:50 247 3 gusting 6 24.4
2015-Sep-02 19:35 234 5 gusting 10 25.0
2015-Sep-02 19:20 223 7 gusting 10 25.6
2015-Sep-02 19:10 201 4 gusting 8 26.1
2015-Sep-02 19:05 127 1 gusting 2 26.7
2015-Sep-02 18:50 089 6 gusting 12 26.7
2015-Sep-02 18:45 074 7 gusting 12 26.7
2015-Sep-02 18:40 092 7 gusting 12 27.2
2015-Sep-02 18:35 099 6 gusting 10 27.2
2015-Sep-02 18:30 080 7 gusting 13 27.2
2015-Sep-02 18:20 093 11 gusting 17 27.2
2015-Sep-02 18:15 084 8 gusting 13 27.2
2015-Sep-02 18:10 103 10 gusting 15 27.2
2015-Sep-02 18:00 091 11 gusting 17 27.8
2015-Sep-02 17:50 093 9 gusting 17 27.8
2015-Sep-02 17:30 104 12 gusting 17 27.8
2015-Sep-02 17:25 093 12 gusting 15 27.8
2015-Sep-02 17:20 090 9 gusting 15 28.3
2015-Sep-02 17:15 075 12 gusting 14 28.3
2015-Sep-02 17:10 080 8 gusting 14 28.3
2015-Sep-02 17:05 080 10 gusting 15 28.9
2015-Sep-02 17:00 081 10 gusting 13 28.9
2015-Sep-02 16:55 101 2 gusting 7 28.3
2015-Sep-02 16:35 262 4 gusting 7 27.8
2015-Sep-02 16:30 244 5 gusting 10 27.8
2015-Sep-02 16:25 264 6 gusting 8 27.8
2015-Sep-02 16:20 162 3 gusting 6 28.3
2015-Sep-02 16:15 260 5 gusting 7 28.3
2015-Sep-02 16:00 192 4 gusting 7 27.8
2015-Sep-02 15:55 234 5 gusting 8 27.8
2015-Sep-02 15:45 185 6 gusting 10 27.8
2015-Sep-02 15:15 238 5 gusting 10 27.8
2015-Sep-02 15:10 196 5 gusting 8 27.8
2015-Sep-02 15:05 228 5 gusting 10 27.8
2015-Sep-02 15:00 199 5 gusting 8 27.8
2015-Sep-02 14:55 215 4 gusting 11 27.8
2015-Sep-02 14:50 216 7 gusting 11 27.8
2015-Sep-02 14:45 222 4 gusting 10 27.8
2015-Sep-02 14:40 268 6 gusting 12 27.8
2015-Sep-02 14:35 199 6 gusting 10 27.8
2015-Sep-02 14:20 230 6 gusting 11 27.8
2015-Sep-02 14:15 159 6 gusting 14 27.8
2015-Sep-02 14:10 181 6 gusting 13 27.8
2015-Sep-02 14:00 207 6 gusting 11 27.8
2015-Sep-02 13:55 170 8 gusting 14 28.3
2015-Sep-02 13:50 172 6 gusting 10 28.3
2015-Sep-02 13:45 216 5 gusting 10 28.3
2015-Sep-02 13:35 204 5 gusting 10 28.3
2015-Sep-02 13:20 208 6 gusting 8 27.8
2015-Sep-02 13:15 214 4 gusting 8 27.8
2015-Sep-02 13:10 216 5 gusting 8 27.2
2015-Sep-02 13:05 229 6 gusting 10 27.2
2015-Sep-02 13:00 247 6 gusting 11 27.2
2015-Sep-02 12:55 246 7 gusting 11 27.2
2015-Sep-02 12:50 254 6 gusting 10 27.2
2015-Sep-02 12:40 233 6 gusting 10 27.2
2015-Sep-02 12:35 239 6 gusting 10 27.8
2015-Sep-02 12:30 186 6 gusting 8 27.2
2015-Sep-02 12:25 209 6 gusting 10 27.2
2015-Sep-02 12:05 260 6 gusting 10 27.8
2015-Sep-02 12:00 241 5 gusting 10 27.2
2015-Sep-02 11:45 238 6 gusting 8 27.8
2015-Sep-02 11:35 258 3 gusting 7 27.2
2015-Sep-02 11:30 232 4 gusting 6 27.2
2015-Sep-02 11:25 239 6 gusting 7 26.7
2015-Sep-02 11:20 273 4 gusting 7 26.7
2015-Sep-02 11:10 269 4 gusting 7 26.7
2015-Sep-02 11:05 213 4 gusting 7 26.7
2015-Sep-02 11:00 272 6 gusting 11 26.7
2015-Sep-02 10:55 237 5 gusting 7 26.7
2015-Sep-02 10:50 239 5 gusting 8 26.7
2015-Sep-02 10:40 205 4 gusting 7 26.7
2015-Sep-02 10:20 201 4 gusting 6 26.1
2015-Sep-02 10:15 238 5 gusting 7 26.7
2015-Sep-02 10:10 232 3 gusting 6 26.7
2015-Sep-02 10:05 260 2 gusting 6 26.7
2015-Sep-02 09:50 242 2 gusting 6 26.1
2015-Sep-02 09:40 190 0 gusting 4 26.1
2015-Sep-02 09:35 275 1 gusting 4 25.6
2015-Sep-02 09:25 241 0 gusting 4 25.6
2015-Sep-02 09:20 241 25.6
2015-Sep-02 09:15 241 2 gusting 4 25.6
2015-Sep-02 09:10 234 2 gusting 4 25.0
2015-Sep-02 09:05 254 3 gusting 4 25.0
2015-Sep-02 09:00 252 1 gusting 2 25.0
2015-Sep-02 08:55 252 0 gusting 2 25.0
2015-Sep-02 08:45 238 0 gusting 2 24.4
2015-Sep-02 08:40 238 1 gusting 4 24.4
2015-Sep-02 08:35 175 24.4
2015-Sep-02 08:30 175 24.4
2015-Sep-02 08:25 175 23.9
2015-Sep-02 08:20 215 23.9
2015-Sep-02 08:00 215 23.3
2015-Sep-02 07:50 215 0 gusting 2 23.3
2015-Sep-02 07:45 215 23.3
2015-Sep-02 07:40 215 23.3
2015-Sep-02 07:35 215 22.8
2015-Sep-02 07:30 215 22.8
2015-Sep-02 07:10 215 22.8
2015-Sep-02 07:05 215 22.8
2015-Sep-02 07:00 215 22.8
2015-Sep-02 06:50 215 22.8
2015-Sep-02 06:45 215 22.8
2015-Sep-02 06:40 215 22.8
2015-Sep-02 06:35 215 22.2
2015-Sep-02 06:20 215 22.2
2015-Sep-02 06:00 215 22.2
2015-Sep-02 05:55 215 22.2
2015-Sep-02 05:50 215 22.2
2015-Sep-02 05:45 215 22.2
2015-Sep-02 05:40 215 22.2
2015-Sep-02 05:35 215 22.2
2015-Sep-02 05:20 215 1 gusting 2 22.2
2015-Sep-02 05:10 215 21.7
2015-Sep-02 05:00 215 21.7
2015-Sep-02 04:55 215 21.7
2015-Sep-02 04:50 215 21.7
2015-Sep-02 04:45 215 21.7
2015-Sep-02 04:40 215 21.7
2015-Sep-02 04:35 215 21.7
2015-Sep-02 04:30 215 21.7
2015-Sep-02 04:20 215 21.7
2015-Sep-02 04:10 215 22.2
2015-Sep-02 04:05 215 22.2
2015-Sep-02 04:00 215 22.2
2015-Sep-02 03:50 215 22.2
2015-Sep-02 03:45 215 22.2
2015-Sep-02 03:40 215 22.2
2015-Sep-02 03:25 215 1 gusting 2 22.2
2015-Sep-02 03:20 215 1 gusting 2 22.2
2015-Sep-02 03:15 215 22.2
2015-Sep-02 03:10 215 22.2
2015-Sep-02 03:05 215 22.8
2015-Sep-02 02:55 215 0 gusting 1 22.8
2015-Sep-02 02:50 215 0 gusting 2 22.8
2015-Sep-02 02:45 215 22.8
2015-Sep-02 02:40 215 22.8
2015-Sep-02 02:30 215 22.8
2015-Sep-02 02:20 215 1 gusting 2 22.8
2015-Sep-02 02:15 215 0 gusting 2 22.8
2015-Sep-02 02:10 169 22.8
2015-Sep-02 02:05 169 22.8
2015-Sep-02 01:45 159 1 gusting 2 22.8
2015-Sep-02 01:40 148 1 gusting 4 22.8
2015-Sep-02 01:35 100 1 gusting 4 22.8
2015-Sep-02 01:30 266 0 gusting 2 22.8
2015-Sep-02 01:20 267 22.8
2015-Sep-02 01:15 266 22.8
2015-Sep-02 01:10 266 22.8
2015-Sep-02 01:05 266 22.8
2015-Sep-02 01:00 266 22.8
2015-Sep-02 00:55 266 22.8
2015-Sep-02 00:50 267 22.8
2015-Sep-02 00:35 266 0 gusting 2 23.3
2015-Sep-02 00:20 175 0 gusting 2 23.3
2015-Sep-02 00:15 175 23.3
2015-Sep-02 00:10 175 23.3
2015-Sep-02 00:05 175 1 gusting 2 23.3
2015-Sep-02 00:00 277 23.3
2015-Sep-01 23:55 277 23.3
2015-Sep-01 23:45 277 23.3
2015-Sep-01 23:40 277 23.3
2015-Sep-01 23:30 277 1 gusting 2 23.9
2015-Sep-01 23:15 274 1 gusting 5 23.9
2015-Sep-01 23:10 277 2 gusting 2 23.9
2015-Sep-01 23:05 277 1 gusting 2 23.9
2015-Sep-01 22:55 277 1 gusting 2 23.9
2015-Sep-01 22:50 277 0 gusting 2 23.9
2015-Sep-01 22:45 277 1 gusting 2 23.9
2015-Sep-01 22:40 277 2 gusting 4 23.9
2015-Sep-01 22:35 311 1 gusting 2 23.9
2015-Sep-01 22:30 260 2 gusting 5 23.9
2015-Sep-01 22:20 157 23.9
2015-Sep-01 22:15 157 23.9
2015-Sep-01 22:10 157 23.9
2015-Sep-01 22:00 157 23.9
2015-Sep-01 21:55 157 23.9
2015-Sep-01 21:50 157 23.9
2015-Sep-01 21:45 157 0 gusting 2 23.9
2015-Sep-01 21:40 276 23.9
2015-Sep-01 21:35 276 23.9
2015-Sep-01 21:25 276 23.9
2015-Sep-01 21:15 276 24.4
2015-Sep-01 21:00 276 1 gusting 2 24.4
2015-Sep-01 20:55 276 24.4
2015-Sep-01 20:50 279 3 gusting 5 24.4
2015-Sep-01 20:40 261 1 gusting 4 24.4
2015-Sep-01 20:35 261 2 gusting 4 24.4
2015-Sep-01 20:30 261 1 gusting 4 24.4
2015-Sep-01 20:25 261 0 gusting 2 24.4
2015-Sep-01 20:20 261 1 gusting 2 24.4
2015-Sep-01 20:05 261 2 gusting 2 24.4
2015-Sep-01 20:00 261 24.4
2015-Sep-01 19:55 261 1 gusting 2 24.4
2015-Sep-01 19:45 240 1 gusting 4 24.4
2015-Sep-01 19:40 215 2 gusting 5 24.4
2015-Sep-01 19:35 248 2 gusting 5 25.0
2015-Sep-01 19:30 217 3 gusting 6 25.0
2015-Sep-01 19:25 222 3 gusting 6 25.0
2015-Sep-01 19:20 232 4 gusting 6 25.0
2015-Sep-01 19:15 231 4 gusting 6 25.6
2015-Sep-01 19:10 234 4 gusting 6 25.6
2015-Sep-01 19:00 234 4 gusting 6 25.6
2015-Sep-01 18:55 239 5 gusting 8 25.6
2015-Sep-01 18:45 269 5 gusting 8 26.1
2015-Sep-01 18:40 262 7 gusting 10 26.1
2015-Sep-01 18:35 272 7 gusting 10 26.1
2015-Sep-01 18:30 264 8 gusting 11 26.1
2015-Sep-01 18:25 255 6 gusting 10 26.7
2015-Sep-01 18:20 258 6 gusting 13 26.7
2015-Sep-01 18:15 273 7 gusting 11 26.7
2015-Sep-01 18:10 271 6 gusting 10 26.7
2015-Sep-01 18:05 254 8 gusting 11 26.7
2015-Sep-01 18:00 256 7 gusting 13 26.7
2015-Sep-01 17:55 254 8 gusting 14 27.2
2015-Sep-01 17:50 258 9 gusting 13 27.2
2015-Sep-01 17:45 240 8 gusting 11 27.8
2015-Sep-01 17:40 238 6 gusting 11 28.3
2015-Sep-01 17:35 251 5 gusting 11 28.3
2015-Sep-01 17:30 239 5 gusting 10 28.3
2015-Sep-01 17:25 243 5 gusting 8 28.9
2015-Sep-01 17:20 225 4 gusting 6 28.9
2015-Sep-01 17:15 233 4 gusting 6 28.9
2015-Sep-01 17:10 234 5 gusting 7 29.4
2015-Sep-01 17:05 236 3 gusting 6 29.4
2015-Sep-01 17:00 218 5 gusting 10 29.4
2015-Sep-01 16:55 188 2 gusting 5 29.4
2015-Sep-01 16:50 250 4 gusting 6 28.9
2015-Sep-01 16:45 226 2 gusting 6 28.9
2015-Sep-01 16:40 215 5 gusting 7 28.9
2015-Sep-01 16:35 260 6 gusting 8 28.9
2015-Sep-01 16:30 259 5 gusting 8 28.9
2015-Sep-01 16:25 242 2 gusting 7 29.4
2015-Sep-01 16:20 239 4 gusting 8 28.9
2015-Sep-01 16:15 192 5 gusting 7 28.9
2015-Sep-01 16:10 226 5 gusting 7 28.9
2015-Sep-01 16:05 225 2 gusting 6 28.9
2015-Sep-01 16:00 252 5 gusting 10 28.9
2015-Sep-01 15:55 250 4 gusting 6 28.9
2015-Sep-01 15:50 239 4 gusting 6 28.9
2015-Sep-01 15:45 198 1 gusting 7 28.9
2015-Sep-01 15:40 223 2 gusting 6 28.3
2015-Sep-01 15:35 212 2 gusting 10 28.3
2015-Sep-01 15:30 256 4 gusting 7 28.3
2015-Sep-01 15:25 237 4 gusting 6 28.3
2015-Sep-01 15:20 231 4 gusting 7 28.3
2015-Sep-01 15:15 243 5 gusting 8 28.3
2015-Sep-01 15:10 240 6 gusting 11 28.3
2015-Sep-01 15:05 265 5 gusting 8 28.3
2015-Sep-01 15:00 245 6 gusting 10 28.3
2015-Sep-01 14:55 270 6 gusting 10 28.3
2015-Sep-01 14:50 240 6 gusting 10 28.3
2015-Sep-01 14:45 264 7 gusting 11 28.3
2015-Sep-01 14:40 234 6 gusting 11 28.3
2015-Sep-01 14:35 238 5 gusting 13 28.3
2015-Sep-01 14:30 238 7 gusting 12 28.3
2015-Sep-01 14:25 241 6 gusting 10 28.9
2015-Sep-01 14:20 245 5 gusting 10 28.9
2015-Sep-01 14:15 232 6 gusting 10 28.9
2015-Sep-01 14:10 226 6 gusting 11 28.9
2015-Sep-01 14:05 264 8 gusting 13 28.3
2015-Sep-01 14:00 254 6 gusting 12 28.3
2015-Sep-01 13:55 239 7 gusting 13 28.3
2015-Sep-01 13:50 264 8 gusting 12 28.3
2015-Sep-01 13:45 251 7 gusting 13 28.3
2015-Sep-01 13:40 245 9 gusting 13 28.3
2015-Sep-01 13:35 223 7 gusting 15 28.3
2015-Sep-01 13:30 262 12 gusting 17 28.3
2015-Sep-01 13:25 242 11 gusting 14 28.9
2015-Sep-01 13:20 259 11 gusting 18 28.9
2015-Sep-01 13:15 259 10 gusting 17 29.4
2015-Sep-01 13:10 266 12 gusting 19 30.6
2015-Sep-01 13:05 240 3 gusting 11 32.2
2015-Sep-01 13:00 098 6 gusting 17 32.2
2015-Sep-01 12:55 093 10 gusting 15 32.2
2015-Sep-01 12:50 087 13 gusting 19 32.2
2015-Sep-01 12:40 105 13 gusting 19 32.2
2015-Sep-01 12:35 106 14 gusting 22 32.2
2015-Sep-01 12:30 095 13 gusting 19 32.2
2015-Sep-01 12:25 088 12 gusting 19 31.7
2015-Sep-01 12:20 095 12 gusting 19 31.7
2015-Sep-01 12:15 086 13 gusting 19 31.7
2015-Sep-01 12:10 100 12 gusting 20 31.7
2015-Sep-01 12:05 093 13 gusting 19 31.7
2015-Sep-01 12:00 102 15 gusting 20 31.7
2015-Sep-01 11:55 096 13 gusting 19 31.1
2015-Sep-01 11:50 092 14 gusting 19 31.1
2015-Sep-01 11:45 091 12 gusting 19 31.1
2015-Sep-01 11:40 078 12 gusting 17 31.1
2015-Sep-01 11:35 085 13 gusting 19 31.1
2015-Sep-01 11:30 092 15 gusting 20 31.1
2015-Sep-01 11:25 083 12 gusting 19 31.1
2015-Sep-01 11:20 099 13 gusting 19 30.0
2015-Sep-01 11:15 083 6 gusting 13 28.9
2015-Sep-01 11:10 212 3 gusting 10 28.9
2015-Sep-01 11:05 202 1 gusting 10 28.3
2015-Sep-01 11:00 244 6 gusting 10 28.3
2015-Sep-01 10:55 230 6 gusting 10 28.3
2015-Sep-01 10:50 253 4 gusting 8 28.3
2015-Sep-01 10:45 248 4 gusting 8 28.3
2015-Sep-01 10:40 240 4 gusting 6 28.3
2015-Sep-01 10:35 274 4 gusting 6 27.8
2015-Sep-01 10:30 270 4 gusting 6 27.8
2015-Sep-01 10:25 237 3 gusting 6 27.8
2015-Sep-01 10:20 193 2 gusting 6 27.2
2015-Sep-01 10:15 221 4 gusting 6 27.2
2015-Sep-01 10:10 270 5 gusting 6 26.7
2015-Sep-01 10:05 241 5 gusting 6 26.7
2015-Sep-01 10:00 240 5 gusting 6 26.7
2015-Sep-01 09:55 252 4 gusting 8 26.7
2015-Sep-01 09:50 265 6 gusting 10 26.1
2015-Sep-01 09:45 252 6 gusting 8 26.1
2015-Sep-01 09:40 288 4 gusting 7 26.1
2015-Sep-01 09:35 243 6 gusting 8 26.1
2015-Sep-01 09:30 246 6 gusting 10 26.1
2015-Sep-01 09:25 242 7 gusting 10 26.1
2015-Sep-01 09:20 256 5 gusting 8 26.1
2015-Sep-01 09:15 241 6 gusting 7 26.1
2015-Sep-01 09:10 226 5 gusting 8 26.1
2015-Sep-01 09:05 253 6 gusting 10 26.1
2015-Sep-01 09:00 265 6 gusting 7 26.1